Regional Weather Roundup
Issued by NWS

Home | Current Version | Previous Version | Text Only | Print | Product List | Glossary Off
Versions: 1 2 3 4 5 6 7 8 9 10 11 12 13 14 15 16 17 18 19 20 21 22 23 24 25 26 27 28 29 30 31 32 33 34 35 36 37 38 39 40 41 42 43 44 45 46 47 48 49 50

000
ASUS43 KMPX 251401
RWRMN
WEATHER ROUNDUP FOR MINNESOTA
NATIONAL WEATHER SERVICE TWIN CITIES/CHANHASSEN MN
900 AM CDT TUE APR 25 2017


NOTE: "FAIR" INDICATES FEW OR NO CLOUDS BELOW 12,000 FEET WITH NO
SIGNIFICANT WEATHER AND/OR OBSTRUCTIONS TO VISIBILITY. N/A MEANS
CURRENT SKY AND/OR WEATHER CONDITIONS ARE NOT AVAILABLE.

MNZ060>063-068>070-251500-
   Twin Cities Metro

CITY           SKY/WX    TMP DP  RH WIND       PRES   REMARKS
TWIN CITIES    PTSUNNY   53  45  74 SW8       29.52S
ST PAUL        PTSUNNY   60  45  57 SW9       29.51F
CRYSTAL        PTSUNNY   55  46  71 SW7       29.51S
BLAINE         PTSUNNY   61  43  51 SW8       29.51R
LAKEVILLE      PTSUNNY   48  45  87 W5        29.53S
EDEN PRAIRIE   CLOUDY    49  45  86 SW7       29.53R FOG
SOUTH ST PAUL  CLOUDY    59  45  59 SW7       29.51S
LAKE ELMO      FAIR      61  41  48 S10       29.52S
$$
MNZ001>005-007-008-013>017-022>024-027-028-251500-
   Northwest Minnesota

CITY           SKY/WX    TMP DP  RH WIND       PRES   REMARKS
BEMIDJI        CLOUDY    34  33  99 N10G16    29.67R WCI  26
HALLOCK        CLOUDY    30  27  86 N18       29.83S WCI  18
ROSEAU         CLOUDY    30  27  86 N20       29.79S WCI  18
WARROAD        CLOUDY    30  27  86 N16G22    29.80R WCI  19
THIEF RVR FALL CLOUDY    30  28  92 N20G26    29.75S WCI  17
CROOKSTON      CLOUDY    32  30  93 N17G24    29.78R WCI  21
FOSSTON        CLOUDY    30  30 100 N17G23    29.71S WCI  18
DETROIT LAKES  FOG       34  34 100 N13G21    29.65S VSB 1   WCI  25
MOORHEAD       CLOUDY    34  30  86 N24G31    29.68F WCI  21
PARK RAPIDS    CLOUDY    39  34  82 N15       29.62F
MAHNOMEN       CLOUDY    33  32  96 N17G23    29.70R WCI  22
$$
MNZ006-009>011-018-025>026-251500-
   North Central Minnesota

CITY           SKY/WX    TMP DP  RH WIND       PRES   REMARKS
BAUDETTE       CLOUDY    31  27  85 N13       29.75R WCI  21
FLAG ISLAND    CLOUDY    28  25  86 N24       29.80R WCI  14
INTL FALLS     CLOUDY    34  32  92 N16       29.69S WCI  24
WASKISH        CLOUDY    32  32 100 N10G17    29.71R FOG     WCI  24
BIG FORK       CLOUDY    37  36  93 N7        29.65R
LONGVILLE      CLOUDY    39  37  93 N6        29.62R
GRAND RAPIDS   CLOUDY    39  36  89 N13       29.63R
CRANE LAKE     CLOUDY    37  36  93 CALM      29.68R
ORR            CLOUDY    37  34  87 N3        29.62F
COOK           CLOUDY    37  36  93 CALM      29.64S
WALKER         CLOUDY    37  35  92 N9        29.65R
$$
MNZ012-019>021-037-251500-
   Northeast Minnesota

CITY           SKY/WX    TMP DP  RH WIND       PRES   REMARKS
DULUTH         CLOUDY    44  41  89 E12       29.58S
ELY            CLOUDY    39  39 100 N3        29.63R
HIBBING        CLOUDY    39  38  96 N8        29.61S
EVELETH        CLOUDY    40  37  89 NE6       29.62S
DULUTH HARBOR  CLOUDY    39  37  93 NE15      29.60F
TWO HARBORS    PTSUNNY   46  43  87 NE6       29.57F
SILVER BAY     LGT RAIN  45  39  81 N5        29.59S
GRAND MARAIS     N/A     40  37  89 NE10      29.63S
G MARAIS ARPRT CLOUDY    41  34  75 N6        29.63S
$$
MNZ029>031-032-039>041-046>048-054>057-064-251500-
   West Central Minnesota

CITY           SKY/WX    TMP DP  RH WIND       PRES   REMARKS
FERGUS FALLS   CLOUDY    36  36 100 N18       29.62F
WHEATON        CLOUDY    34  32  93 NW23      29.66R WCI  22
MORRIS         CLOUDY    36  36 100 N22       29.59R FOG
ALEXANDRIA     CLOUDY    41  41 100 N15       29.58R FOG
ELBOW LAKE     CLOUDY    37  37 100 N18       29.60S
WADENA         CLOUDY    39  37  93 N17G23    29.59S
GLENWOOD       CLOUDY    43  43 100 N13       29.56F
APPLETON       CLOUDY    37  34  87 NW17G25   29.61R
BENSON         CLOUDY    39  36  87 N13       29.59F HAZE
ORTONVILLE     CLOUDY    34  30  86 N23G31    29.63R FOG     WCI  22
MADISON        CLOUDY    37  37 100 N17G28    29.62R
WILLMAR        CLOUDY    43  41  93 NW13      29.56S FOG
$$
MNZ033>034-036-042>043-049>051-058-059-251500-
   Central Minnesota

CITY           SKY/WX    TMP DP  RH WIND       PRES   REMARKS
ST CLOUD       PTSUNNY   49  44  83 N8        29.52S
SAUK CENTRE    CLOUDY    43  40  88 N14G20    29.56R
PAYNESVILLE    CLOUDY    46  46  99 N8        29.54S
AITKIN         PTSUNNY   48  39  71 N12       29.56F
PINE RIVER     CLOUDY    43  37  81 N13G18    29.64R
BRAINERD       CLOUDY    43  39  86 N12       29.58R
STAPLES        CLOUDY    41  37  87 N13       29.59R
LONG PRAIRIE   CLOUDY    41  37  87 NW14      29.57R
LITTLE FALLS   CLOUDY    45  37  76 N6        29.56R
LITCHFIELD     CLOUDY    48  46  93 NW7       29.53S
BUFFALO        CLOUDY    49  46  87 SW3       29.53S
MAPLE LAKE     CLOUDY    53  49  86 NW7       29.52F
HUTCHINSON     CLOUDY    46  46  99 NW9       29.55R FOG
$$
MNZ037-044-045-052-053-251500-
   East Central Minnesota

CITY           SKY/WX    TMP DP  RH WIND       PRES   REMARKS
PRINCETON      CLOUDY    52  43  71 N7        29.52S
MORA           CLOUDY    48  37  66 N5        29.54R
CAMBRIDGE      PTSUNNY   54  43  66 CALM      29.49S
RUSH CITY      PTSUNNY   53  42  68 N3        29.52S
MOOSE LAKE     MOSUNNY   41  37  87 NE5       29.55R
HINCKLEY       FAIR      46  39  76 N7        29.54R
CLOQUET        CLOUDY    43  39  87 E7        29.57R
MCGREGOR       CLOUDY    45  41  87 N10       29.58R
$$
MNZ071>073-080-081-089-090-097-098-251500-
   Southwest Minnesota

CITY           SKY/WX    TMP DP  RH WIND       PRES   REMARKS
MONTEVIDEO     CLOUDY    36  36 100 N14G23    29.59R FOG
GRANITE FALLS  CLOUDY    38  37  97 NW14G20   29.61R FOG
CANBY          CLOUDY    36  36  99 NW15      29.63R FOG
MARSHALL       CLOUDY    36  35  96 N20       29.60R
REDWOOD FALLS  CLOUDY    39  37  92 NW10      29.56R
OLIVIA         CLOUDY    39  37  93 NW14      29.55R FOG
PIPESTONE      CLOUDY    37  34  87 N10G17    29.60R FOG
WINDOM         CLOUDY    39  39 100 N12       29.57R FOG
WORTHINGTON    CLOUDY    38  37  97 N15       29.58S
JACKSON        FOG       37  37 100 NW10      29.58R VSB 1
TRACY          CLOUDY    37  37 100 NW16G22   29.59R FOG
SLAYTON        CLOUDY    35  35 100 N14       29.58R FOG     WCI  26
$$
MNZ065>067-074>077-082>085-091>093-251500-
   South Central Minnesota

CITY           SKY/WX    TMP DP  RH WIND       PRES   REMARKS
MANKATO        CLOUDY    42  40  92 NW9       29.57R FOG
NEW ULM        CLOUDY    39  39 100 NW9       29.57R FOG
ST JAMES       CLOUDY    39  39 100 NW12      29.58R FOG
FAIRMONT       CLOUDY    41  39  93 NW12      29.57R FOG
GLENCOE        CLOUDY    47  47 100 W8        29.54R
FARIBAULT      PTSUNNY   46  43  87 SW5       29.55R
OWATONNA       CLOUDY    50  43  76 W7        29.55R
WASECA         CLOUDY    43  39  87 W6        29.56S
ALBERT LEA     CLOUDY    52  43  71 NW3       29.54R
$$
MNZ078>079-086>088-094>096-251500-
   Southeast Minnesota

CITY           SKY/WX    TMP DP  RH WIND       PRES   REMARKS
ROCHESTER      SUNNY     60  39  45 S13       29.55R
RED WING       PTSUNNY   63  34  34 S5        29.52S
STANTON        PTSUNNY   55  46  72 W8        29.52R
DODGE CENTER   MOSUNNY   61  39  44 S14       29.53R
WINONA         SUNNY     63  36  36 SE6       29.55R
AUSTIN         CLOUDY    59  39  47 S10       29.53S
PRESTON        SUNNY     59  37  43 S12G18    29.57R
$$
ABBREVIATIONS USED IN REMARKS
   TC - TEMPERATURES IN CELSIUS
  WCI - WIND CHILL INDEX
   HX - HEAT INDEX
  VSB - VISIBILITY
$$




USA.gov is the U.S. government's official web portal to all federal, state and local government web resources and services.